sat.trackr.live / text

‹ back to catalog

STARLINK-32754

NORAD 62527 · 2025-004S

PAYLOAD ACTIVE UNKNOWN

§ Identity

Operator
Country
US
Launch date
2025-01-08
Launch site
AFETR
Launch vehicle
Mass (kg)
RCS (m²)

Purposes: comms

External: N2YO · Heavens-Above · Gunter

§ Orbital elements

Epoch: 2026-05-25T00:43:54.718752Z

Period
94.27 min
Inclination
42.9986°
Eccentricity
0.0000764
Mean motion
15.27591556 rev/d
Perigee alt
482.5 km
Apogee alt
483.5 km
Semi-major
6,861.2 km
B*
6.0662e-4
RAAN
148.7653°
Arg perigee
255.4610°
Mean anomaly
104.6157°
Rev number
7,718

§ Raw data

STARLINK-327541 62527U 25004S   26145.03049443  .00016474  00000+0  60662-3 0  99922 62527  42.9986 148.7653 0000764 255.4610 104.6157 15.27591556 77189

JSON: /api/v1/satellites/62527 · /tle

For live sub-satellite position, see the globe view (requires WebGL).

§ Visibility from observer

Set your observer location to see the next 7 days of passes ≥ 10°. The values pass through the URL so the page stays shareable.

No JS? Fill the form by hand. The geolocation button needs JavaScript.